Time,TemperatureF,DewpointF,PressureIn,WindDirection,WindDirectionDegrees,WindSpeedMPH,WindSpeedGustMPH,Humidity,HourlyPrecipIn,Conditions,Clouds,dailyrainin,SolarRadiationWatts/m^2,SoftwareType,DateUTC
2013-05-31 00:12:00,73.0,67.0,30.30,East,85,19.0,30.0,81,0.00,,,0.00,0.000000,,2013-05-31 10:12:00,
2013-05-31 00:22:00,73.0,67.0,30.30,East,85,19.0,30.0,81,0.00,,,0.00,0.000000,,2013-05-31 10:22:00,
2013-05-31 00:32:00,73.0,67.0,30.30,East,85,19.0,30.0,81,0.00,,,0.00,0.000000,,2013-05-31 10:32:00,
2013-05-31 00:42:00,73.0,67.0,30.30,East,85,19.0,30.0,81,0.00,,,0.00,0.000000,,2013-05-31 10:42:00,
2013-05-31 00:52:00,73.0,67.0,30.30,East,85,19.0,30.0,81,0.00,,,0.00,0.000000,,2013-05-31 10:52:00,
2013-05-31 01:11:00,74.0,68.0,30.28,East,83,18.0,32.0,81,0.00,,,0.00,0.000000,,2013-05-31 11:11:00,
2013-05-31 01:22:00,74.0,68.0,30.28,East,83,18.0,32.0,81,0.00,,,0.00,0.000000,,2013-05-31 11:22:00,
2013-05-31 01:32:00,74.0,68.0,30.28,East,83,18.0,32.0,81,0.00,,,0.00,0.000000,,2013-05-31 11:32:00,
2013-05-31 01:42:00,74.0,68.0,30.28,East,83,18.0,32.0,81,0.00,,,0.00,0.000000,,2013-05-31 11:42:00,
2013-05-31 01:52:00,74.0,68.0,30.28,East,83,18.0,32.0,81,0.00,,,0.00,0.000000,,2013-05-31 11:52:00,
2013-05-31 02:11:00,74.0,68.0,30.27,East,80,17.0,29.0,82,0.00,,,0.00,0.000000,,2013-05-31 12:11:00,
2013-05-31 02:21:00,74.0,68.0,30.27,East,80,17.0,29.0,82,0.00,,,0.00,0.000000,,2013-05-31 12:21:00,
2013-05-31 02:31:00,74.0,68.0,30.27,East,80,17.0,29.0,82,0.00,,,0.00,0.000000,,2013-05-31 12:31:00,
2013-05-31 02:41:00,74.0,68.0,30.27,East,80,17.0,29.0,82,0.00,,,0.00,0.000000,,2013-05-31 12:41:00,
2013-05-31 02:51:00,74.0,68.0,30.27,East,80,17.0,29.0,82,0.00,,,0.00,0.000000,,2013-05-31 12:51:00,
2013-05-31 03:11:00,73.0,69.0,30.26,ENE,73,17.0,26.0,87,0.00,,,0.00,0.000000,,2013-05-31 13:11:00,
2013-05-31 03:21:00,73.0,69.0,30.26,ENE,73,17.0,26.0,87,0.00,,,0.00,0.000000,,2013-05-31 13:21:00,
2013-05-31 03:32:00,73.0,69.0,30.26,ENE,73,17.0,26.0,87,0.00,,,0.00,0.000000,,2013-05-31 13:32:00,
2013-05-31 03:42:00,73.0,69.0,30.26,ENE,73,17.0,26.0,87,0.00,,,0.00,0.000000,,2013-05-31 13:42:00,
2013-05-31 03:52:00,73.0,69.0,30.26,ENE,73,17.0,26.0,87,0.00,,,0.00,0.000000,,2013-05-31 13:52:00,
2013-05-31 04:11:00,71.0,68.0,30.25,ENE,72,19.0,30.0,90,0.00,,,0.00,0.000000,,2013-05-31 14:11:00,
2013-05-31 04:21:00,71.0,68.0,30.25,ENE,72,19.0,30.0,90,0.00,,,0.00,0.000000,,2013-05-31 14:21:00,
2013-05-31 04:32:00,71.0,68.0,30.25,ENE,72,19.0,30.0,90,0.00,,,0.00,0.000000,,2013-05-31 14:32:00,
2013-05-31 04:41:00,71.0,68.0,30.25,ENE,72,19.0,30.0,90,0.00,,,0.00,0.000000,,2013-05-31 14:41:00,
2013-05-31 04:52:00,71.0,68.0,30.25,ENE,72,19.0,30.0,90,0.00,,,0.00,0.000000,,2013-05-31 14:52:00,
2013-05-31 04:53:00,73.0,70.0,30.25,East,82,19.0,32.0,91,0.00,,,0.00,0.000000,,2013-05-31 14:53:00,
2013-05-31 05:11:00,73.0,70.0,30.25,East,82,19.0,32.0,91,0.00,,,0.00,0.000000,,2013-05-31 15:11:00,
2013-05-31 05:21:00,73.0,70.0,30.25,East,82,19.0,32.0,91,0.00,,,0.00,0.000000,,2013-05-31 15:21:00,
2013-05-31 05:33:00,73.0,70.0,30.25,East,82,19.0,32.0,91,0.00,,,0.00,0.000000,,2013-05-31 15:33:00,
2013-05-31 05:43:00,73.0,70.0,30.25,East,82,19.0,32.0,91,0.00,,,0.00,0.000000,,2013-05-31 15:43:00,
2013-05-31 06:12:00,73.0,71.0,30.27,East,85,20.0,30.0,92,0.00,,,0.00,0.000000,,2013-05-31 16:12:00,
2013-05-31 06:22:00,73.0,71.0,30.27,East,85,20.0,30.0,92,0.00,,,0.00,0.000000,,2013-05-31 16:22:00,
2013-05-31 06:33:00,73.0,71.0,30.27,East,85,20.0,30.0,92,0.00,,,0.00,0.000000,,2013-05-31 16:33:00,
2013-05-31 06:42:00,73.0,71.0,30.27,East,85,20.0,30.0,92,0.00,,,0.00,0.000000,,2013-05-31 16:42:00,
2013-05-31 06:52:00,73.0,71.0,30.27,East,85,20.0,30.0,92,0.00,,,0.00,0.000000,,2013-05-31 16:52:00,
2013-05-31 07:12:00,72.0,68.0,30.29,ENE,76,20.0,31.0,87,0.00,,,0.00,0.000000,,2013-05-31 17:12:00,
2013-05-31 07:22:00,72.0,68.0,30.29,ENE,76,20.0,31.0,87,0.00,,,0.00,0.000000,,2013-05-31 17:22:00,
2013-05-31 07:32:00,72.0,68.0,30.29,ENE,76,20.0,31.0,87,0.00,,,0.00,0.000000,,2013-05-31 17:32:00,
2013-05-31 07:42:00,72.0,68.0,30.29,ENE,76,20.0,31.0,87,0.00,,,0.00,0.000000,,2013-05-31 17:42:00,
2013-05-31 07:52:00,72.0,68.0,30.29,ENE,76,20.0,31.0,87,0.00,,,0.00,0.000000,,2013-05-31 17:52:00,
2013-05-31 08:11:00,74.0,71.0,30.30,East,83,20.0,32.0,91,0.00,,,0.00,45.000000,,2013-05-31 18:11:00,
2013-05-31 08:22:00,74.0,71.0,30.30,East,83,20.0,32.0,91,0.00,,,0.00,45.000000,,2013-05-31 18:22:00,
2013-05-31 08:31:00,74.0,71.0,30.30,East,83,20.0,32.0,91,0.00,,,0.00,45.000000,,2013-05-31 18:31:00,
2013-05-31 08:41:00,74.0,71.0,30.30,East,83,20.0,32.0,91,0.00,,,0.00,45.000000,,2013-05-31 18:41:00,
2013-05-31 08:52:00,74.0,71.0,30.30,East,83,20.0,32.0,91,0.00,,,0.00,45.000000,,2013-05-31 18:52:00,
2013-05-31 09:11:00,76.0,71.0,30.30,East,86,22.0,35.0,85,0.00,,,0.00,108.000000,,2013-05-31 19:11:00,
2013-05-31 09:22:00,76.0,71.0,30.30,East,86,22.0,35.0,85,0.00,,,0.00,108.000000,,2013-05-31 19:22:00,
2013-05-31 09:31:00,76.0,71.0,30.30,East,86,22.0,35.0,85,0.00,,,0.00,108.000000,,2013-05-31 19:31:00,
2013-05-31 09:42:00,76.0,71.0,30.30,East,86,22.0,35.0,85,0.00,,,0.00,108.000000,,2013-05-31 19:42:00,
2013-05-31 09:52:00,76.0,71.0,30.30,East,86,22.0,35.0,85,0.00,,,0.00,108.000000,,2013-05-31 19:52:00,
2013-05-31 10:11:00,75.0,71.0,30.31,East,87,24.0,36.0,86,0.00,,,-99.99,425.000000,,2013-05-31 20:11:00,
2013-05-31 10:22:00,75.0,71.0,30.31,East,87,24.0,36.0,86,0.00,,,-99.99,425.000000,,2013-05-31 20:22:00,
2013-05-31 10:31:00,75.0,71.0,30.31,East,87,24.0,36.0,86,0.00,,,-99.99,425.000000,,2013-05-31 20:31:00,
2013-05-31 10:41:00,75.0,71.0,30.31,East,87,24.0,36.0,86,0.00,,,-99.99,425.000000,,2013-05-31 20:41:00,
2013-05-31 10:51:00,75.0,71.0,30.31,East,87,24.0,36.0,86,0.00,,,-99.99,425.000000,,2013-05-31 20:51:00,
2013-05-31 10:53:00,77.0,68.0,30.30,East,84,26.0,39.0,75,0.00,,,0.00,595.000000,,2013-05-31 20:53:00,
2013-05-31 11:11:00,77.0,68.0,30.30,East,84,26.0,39.0,75,0.00,,,0.00,595.000000,,2013-05-31 21:11:00,
2013-05-31 11:22:00,77.0,68.0,30.30,East,84,26.0,39.0,75,0.00,,,0.00,595.000000,,2013-05-31 21:22:00,
2013-05-31 11:32:00,77.0,68.0,30.30,East,84,26.0,39.0,75,0.00,,,0.00,595.000000,,2013-05-31 21:32:00,
2013-05-31 11:42:00,77.0,68.0,30.30,East,84,26.0,39.0,75,0.00,,,0.00,595.000000,,2013-05-31 21:42:00,
2013-05-31 12:12:00,79.0,70.0,30.30,East,87,26.0,39.0,75,0.00,,,0.00,999.000000,,2013-05-31 22:12:00,
2013-05-31 12:22:00,79.0,70.0,30.30,East,87,26.0,39.0,75,0.00,,,0.00,999.000000,,2013-05-31 22:22:00,
2013-05-31 12:33:00,79.0,70.0,30.30,East,87,26.0,39.0,75,0.00,,,0.00,999.000000,,2013-05-31 22:33:00,
2013-05-31 12:41:00,79.0,70.0,30.30,East,87,26.0,39.0,75,0.00,,,0.00,999.000000,,2013-05-31 22:41:00,
2013-05-31 12:52:00,79.0,70.0,30.30,East,87,26.0,39.0,75,0.00,,,0.00,999.000000,,2013-05-31 22:52:00,
2013-05-31 13:12:00,80.0,70.0,30.27,East,85,27.0,40.0,72,0.00,,,0.00,1205.000000,,2013-05-31 23:12:00,
2013-05-31 13:21:00,80.0,70.0,30.27,East,85,27.0,40.0,72,0.00,,,0.00,1205.000000,,2013-05-31 23:21:00,
2013-05-31 13:32:00,80.0,70.0,30.27,East,85,27.0,40.0,72,0.00,,,0.00,1205.000000,,2013-05-31 23:32:00,
2013-05-31 13:42:00,80.0,70.0,30.27,East,85,27.0,40.0,72,0.00,,,0.00,1205.000000,,2013-05-31 23:42:00,
2013-05-31 13:52:00,80.0,70.0,30.27,East,85,27.0,40.0,72,0.00,,,0.00,1205.000000,,2013-05-31 23:52:00,
2013-05-31 14:11:00,79.0,68.0,30.27,East,91,25.0,41.0,69,0.00,,,0.00,1186.000000,,2013-06-01 00:11:00,
2013-05-31 14:22:00,79.0,68.0,30.27,East,91,25.0,41.0,69,0.00,,,0.00,1186.000000,,2013-06-01 00:22:00,
2013-05-31 14:31:00,79.0,68.0,30.27,East,91,25.0,41.0,69,0.00,,,0.00,1186.000000,,2013-06-01 00:31:00,
2013-05-31 14:42:00,79.0,68.0,30.27,East,91,25.0,41.0,69,0.00,,,0.00,1186.000000,,2013-06-01 00:42:00,
2013-05-31 14:51:00,79.0,68.0,30.27,East,91,25.0,41.0,69,0.00,,,0.00,1186.000000,,2013-06-01 00:51:00,
2013-05-31 15:11:00,78.0,68.0,30.27,East,95,23.0,38.0,71,0.00,,,0.00,1141.000000,,2013-06-01 01:11:00,
2013-05-31 15:21:00,78.0,68.0,30.27,East,95,23.0,38.0,71,0.00,,,0.00,1141.000000,,2013-06-01 01:21:00,
2013-05-31 15:32:00,78.0,68.0,30.27,East,95,23.0,38.0,71,0.00,,,0.00,1141.000000,,2013-06-01 01:32:00,
2013-05-31 15:42:00,78.0,68.0,30.27,East,95,23.0,38.0,71,0.00,,,0.00,1141.000000,,2013-06-01 01:42:00,
2013-05-31 15:52:00,78.0,68.0,30.27,East,95,23.0,38.0,71,0.00,,,0.00,1141.000000,,2013-06-01 01:52:00,
2013-05-31 16:11:00,79.0,70.0,30.28,East,85,19.0,35.0,73,0.00,,,0.00,1100.000000,,2013-06-01 02:11:00,
2013-05-31 16:21:00,79.0,70.0,30.28,East,85,19.0,35.0,73,0.00,,,0.00,1100.000000,,2013-06-01 02:21:00,
2013-05-31 16:32:00,79.0,70.0,30.28,East,85,19.0,35.0,73,0.00,,,0.00,1100.000000,,2013-06-01 02:32:00,
2013-05-31 16:42:00,79.0,70.0,30.28,East,85,19.0,35.0,73,0.00,,,0.00,1100.000000,,2013-06-01 02:42:00,
2013-05-31 16:51:00,79.0,70.0,30.28,East,85,19.0,35.0,73,0.00,,,0.00,1100.000000,,2013-06-01 02:51:00,
2013-05-31 16:53:00,78.0,69.0,30.29,East,86,18.0,31.0,75,0.00,,,0.00,742.000000,,2013-06-01 02:53:00,
2013-05-31 17:11:00,78.0,69.0,30.29,East,86,18.0,31.0,75,0.00,,,0.00,742.000000,,2013-06-01 03:11:00,
2013-05-31 17:21:00,78.0,69.0,30.29,East,86,18.0,31.0,75,0.00,,,0.00,742.000000,,2013-06-01 03:21:00,
2013-05-31 17:33:00,78.0,69.0,30.29,East,86,18.0,31.0,75,0.00,,,0.00,742.000000,,2013-06-01 03:33:00,
2013-05-31 17:43:00,78.0,69.0,30.29,East,86,18.0,31.0,75,0.00,,,0.00,742.000000,,2013-06-01 03:43:00,
2013-05-31 17:53:00,77.0,69.0,30.30,East,89,19.0,29.0,77,0.00,,,0.00,361.000000,,2013-06-01 03:53:00,
2013-05-31 18:12:00,77.0,69.0,30.30,East,89,19.0,29.0,77,0.00,,,0.00,361.000000,,2013-06-01 04:12:00,
2013-05-31 18:23:00,77.0,69.0,30.30,East,89,19.0,29.0,77,0.00,,,0.00,361.000000,,2013-06-01 04:23:00,
2013-05-31 18:33:00,77.0,69.0,30.30,East,89,19.0,29.0,77,0.00,,,0.00,361.000000,,2013-06-01 04:33:00,
2013-05-31 18:42:00,77.0,69.0,30.30,East,89,19.0,29.0,77,0.00,,,0.00,361.000000,,2013-06-01 04:42:00,
2013-05-31 19:12:00,76.0,69.0,30.31,East,82,17.0,29.0,79,0.00,,,0.00,402.000000,,2013-06-01 05:12:00,
2013-05-31 19:22:00,76.0,69.0,30.31,East,82,17.0,29.0,79,0.00,,,0.00,402.000000,,2013-06-01 05:22:00,
2013-05-31 19:32:00,76.0,69.0,30.31,East,82,17.0,29.0,79,0.00,,,0.00,402.000000,,2013-06-01 05:32:00,
2013-05-31 19:42:00,76.0,69.0,30.31,East,82,17.0,29.0,79,0.00,,,0.00,402.000000,,2013-06-01 05:42:00,
2013-05-31 19:52:00,76.0,69.0,30.31,East,82,17.0,29.0,79,0.00,,,0.00,402.000000,,2013-06-01 05:52:00,
2013-05-31 20:12:00,75.0,69.0,30.32,East,81,19.0,31.0,81,0.00,,,0.00,166.000000,,2013-06-01 06:12:00,
2013-05-31 20:22:00,75.0,69.0,30.32,East,81,19.0,31.0,81,0.00,,,0.00,166.000000,,2013-06-01 06:22:00,
2013-05-31 20:32:00,75.0,69.0,30.32,East,81,19.0,31.0,81,0.00,,,0.00,166.000000,,2013-06-01 06:32:00,
2013-05-31 20:42:00,75.0,69.0,30.32,East,81,19.0,31.0,81,0.00,,,0.00,166.000000,,2013-06-01 06:42:00,
2013-05-31 20:51:00,75.0,69.0,30.32,East,81,19.0,31.0,81,0.00,,,0.00,166.000000,,2013-06-01 06:51:00,
2013-05-31 21:11:00,73.0,67.0,30.34,East,86,18.0,32.0,82,0.00,,,0.00,1.000000,,2013-06-01 07:11:00,
2013-05-31 21:21:00,73.0,67.0,30.34,East,86,18.0,32.0,82,0.00,,,0.00,1.000000,,2013-06-01 07:21:00,
2013-05-31 21:31:00,73.0,67.0,30.34,East,86,18.0,32.0,82,0.00,,,0.00,1.000000,,2013-06-01 07:31:00,
2013-05-31 21:42:00,73.0,67.0,30.34,East,86,18.0,32.0,82,0.00,,,0.00,1.000000,,2013-06-01 07:42:00,
2013-05-31 21:52:00,73.0,67.0,30.34,East,86,18.0,32.0,82,0.00,,,0.00,1.000000,,2013-06-01 07:52:00,
2013-05-31 22:11:00,73.0,67.0,30.35,East,81,17.0,30.0,82,0.00,,,0.00,0.000000,,2013-06-01 08:11:00,
2013-05-31 22:21:00,73.0,67.0,30.35,East,81,17.0,30.0,82,0.00,,,0.00,0.000000,,2013-06-01 08:21:00,
2013-05-31 22:32:00,73.0,67.0,30.35,East,81,17.0,30.0,82,0.00,,,0.00,0.000000,,2013-06-01 08:32:00,
2013-05-31 22:42:00,73.0,67.0,30.35,East,81,17.0,30.0,82,0.00,,,0.00,0.000000,,2013-06-01 08:42:00,
2013-05-31 22:51:00,73.0,67.0,30.35,East,81,17.0,30.0,82,0.00,,,0.00,0.000000,,2013-06-01 08:51:00,
2013-05-31 22:53:00,73.0,68.0,30.36,East,86,18.0,30.0,84,0.00,,,0.00,0.000000,,2013-06-01 08:53:00,
2013-05-31 23:12:00,73.0,68.0,30.36,East,86,18.0,30.0,84,0.00,,,0.00,0.000000,,2013-06-01 09:12:00,
2013-05-31 23:21:00,73.0,68.0,30.36,East,86,18.0,30.0,84,0.00,,,0.00,0.000000,,2013-06-01 09:21:00,
2013-05-31 23:33:00,73.0,68.0,30.36,East,86,18.0,30.0,84,0.00,,,0.00,0.000000,,2013-06-01 09:33:00,
2013-05-31 23:42:00,73.0,68.0,30.36,East,86,18.0,30.0,84,0.00,,,0.00,0.000000,,2013-06-01 09:42:00,